Regional Weather Roundup
Issued by NWS Sioux Falls, SD

Home | Current Version | Previous Version | Text Only | Print | Product List | Glossary Off
Versions: 1 2 3 4 5 6 7 8 9 10 11 12 13 14 15 16 17 18 19 20 21 22 23 24 25 26 27 28 29 30 31 32 33 34 35 36 37 38 39 40 41 42 43 44 45 46 47 48 49 50

000
ASUS43 KFSD 091602
RWRFSD

WEATHER ROUNDUP FOR SE SOUTH DAKOTA/SW MINNESOTA/NW IOWA
NATIONAL WEATHER SERVICE SIOUX FALLS SD
1000 AM CST TUE FEB 09 2016

NOTE: "FAIR" INDICATES FEW OR NO CLOUDS BELOW 12,000 FEET WITH NO
SIGNIFICANT WEATHER AND OR OBSTRUCTIONS TO VISIBILITY.


SDZ038>040-050-052>070-091700-
SOUTHEAST SOUTH DAKOTA

CITY           SKY/WX    TMP DP  RH WIND       PRES   REMARKS
BROOKINGS      CLOUDY     9   2  73 N16       30.22R WCI  -8
CHAMBERLAIN    NOT AVBL
HURON          MOSUNNY   17   7  64 N12       30.30R WCI   4
MADISON        CLOUDY    10   5  79 N15       30.23R WCI  -6
MITCHELL       SUNNY     20  11  68 N10       30.31S WCI   9
SIOUX FALLS    MOSUNNY   11   1  64 NW13      30.24S WCI  -4
WINNER         CLOUDY    24   7  48 NW3       30.30R
YANKTON        SUNNY     16   5  62 N15G21    30.30S WCI   1
$$

MNZ071-072-080-081-089-090-097-098-091700-
SOUTHWEST MINNESOTA

CITY           SKY/WX    TMP DP  RH WIND       PRES   REMARKS
FAIRMONT       SUNNY      7   0  72 NW24      30.13R WCI -15
JACKSON        SUNNY      9   0  66 NW25G31   30.15R WCI -13
LUVERNE        SUNNY     10   1  67 N14       30.23R WCI  -5
MARSHALL       PTSUNNY    9   2  73 NW23      30.22R WCI -11
MONTEVIDEO     CLOUDY    10   3  72 N22       30.25R WCI  -9
PIPESTONE      SUNNY      9  -6  52 N16G22    30.19S WCI  -9
REDWOOD FALLS  SUNNY      9   1  70 N17G25    30.21R WCI  -9
TRACY          SUNNY     10   3  76 NW22G28   30.21R WCI -10
WINDOM         SUNNY      7   1  78 NW26      30.15R WCI -16
WORTHINGTON    SUNNY      7  -2  66 NW18      30.19R WCI -12
$$

IAZ001>003-012>014-020>022-031-032-NEZ013-014-SDZ071-091700-
NORTHWEST IOWA

CITY           SKY/WX    TMP DP  RH WIND       PRES   REMARKS
ESTHERVILLE    SUNNY      6   1  80 NW25      30.14R WCI -16
SIOUX CITY     MOSUNNY   13   3  64 NW17G24   30.27R WCI  -4
SPENCER        SUNNY      8  -1  66 NW21      30.18R WCI -12
STORM LAKE     SUNNY      9   1  72 N24G32    30.17R WCI -12
$$

ABBREVIATIONS USED IN REMARKS
   TC - TEMPERATURE IN CELSIUS
  WCI - WIND CHILL INDEX
   HX - HEAT INDEX
  VSB - VISIBILITY




USA.gov is the U.S. government's official web portal to all federal, state and local government web resources and services.